DECAYED
Showing default

PIONEER-02, 62662 (Decayed)

Orbit data source: Space-Track

PIONEER-02, 62662 was a payload satellite owned by Varda Space (US) in SSO that was launched on Tue, 14 Jan 2025 UTC via an FALCON 9 launch vehicle from the Air Force Western Test Range (AFWTR). Payload-class satellites include a variety of spacecraft equipped with specific instruments for various scientific and technological missions. These include communications satellites like Starlink; space stations such as the ISS; scientific satellites like the Hubble; Earth observation satellites from companies like Planet Labs, Umbra, and HawkEye 360; GPS; miniature CubeSats for education and research; and military/defense satellites.

Not visible in the next 10 days
Identifier
62662, 2025-009BF
Orbit
Decayed
Country
Flag of USUS
Related business
Manufacturer
Rocket Lab
Mission
Decayed Commercial Technology
Bus & Motor
RL PIONEER, HYPERC
Mass
300 kg wet, 55 kg dry
Launch date (UTC)
2025-01-14 (1 year ago)
Launch vehicle
FALCON 9
Launch site
Air Force Western Test Range (AFWTR)
Object type
Payload
Rocket body
Debris
Shape & HBR
Trunc Cone, 0.7 m
Radar Cross Section
Large (>1 m²)

Expand to show TLE details & history
Last TLE update: 11 months ago

TLE from 11 months ago
0 PIONEER-02
1 62662U 25009BF  25058.58334491  .20045499  00000-0  50425+0 0  9993
2 62662  97.1579 140.4281 0375229  16.4132 256.4304 14.88973279  2955
Epoch: 2025-02-27T14:00Z
TLE epoch observation values (Epoch: 2025-02-27T14:00:01.000Z)
Latitude
-82.76706°
Longitude
-127.03844°
Altitude
700.185 km
Speed
7.467 km/s
True Right ascension
16h 02m 29s
True Declination
-82° 43' 25"
Sunlit
Object was in daylight at epoch
Visualization orbit readout
Latitude
Unknown
Longitude
Unknown
Altitude
Unknown
Speed
Unknown
Apparent Right ascension
Unknown
Apparent Declination
Unknown
Sunlit
N/A
Visualization observer readout
Local Sidereal Time
04:13:54
Azimuth
Unknown
Elevation
Unknown
Doppler factor
Unknown
Orbital elements
Apogee altitude
859.903 km
Perigee altitude
336.363 km
Semi-major axis
6,976.27 km
Eccentricity
0.03752
Inclination
97.1579°
RAAN
140.4281°
Arg. of periapsis
16.4132°
True anomaly
252.29971°
Mean anomaly
256.4304°
Eccentric anomaly
254.3601°
Mean motion
3.72485 °/min
Orbital period
96.65 mins
BSTAR
0.50425
Loading maneuver chart data...
Computing Atmospheric mass density...
Loading historical data...
Loading historical data...
Loading historical data...
Loading historical data...
Loading historical data...
Loading historical data...
Loading historical data...

Documentation

Showing up to 5 results
|